Terminal Aerodrome Forecast
Issued by NWS Austin/San Antonio, TX

Home | Current Version | Previous Version | Text Only | Print | Product List | Glossary On
Versions: 1 2 3 4 5 6 7 8 9 10 11 12 13 14 15 16 17 18 19 20 21 22 23
000
FTUS44 KEWX 201100
TAFDRT
TAF
KDRT 201125Z 2012/2112 11007KT P6SM OVC015
      TEMPO 2012/2015 4SM -RA BR OVC012
     FM201500 13011KT P6SM BKN012
     FM201800 14015KT P6SM BKN025
     FM202100 13015KT P6SM BKN040
     FM210200 12009KT P6SM BKN050
     FM211000 11008KT P6SM BKN007=

USA.gov is the U.S. government's official web portal to all federal, state and local government web resources and services.